• In Italy
  • List of Countries
  • For 7 days
  • Water Temperature
  • Satellite Maps
  • Weather Map
  • Weather Widgets
  • user-avatar
    Login

    Hourly Weather Pekanbaru

    Today, 24 January, Wednesday

    Time Temperature Precipitation Wind Pressure Humidity
    00:00 +24°C° 0.1 mm 0 mps 754 mmHg 92%
    01:00 +24°C° 0 mm 0 mps 754 mmHg 93%
    02:00 +24°C° 0 mm 0 mps 754 mmHg 94%
    03:00 +23°C° 0 mm 0 mps 754 mmHg 95%
    04:00 +25°C° 0 mm 1 mps 754 mmHg 96%
    05:00 +23°C° 0 mm 0 mps 754 mmHg 95%
    06:00 +23°C° 0 mm 0 mps 754 mmHg 95%
    07:00 +23°C° 0 mm 0 mps 754 mmHg 95%
    08:00 +27°C° 0 mm 1 mps 755 mmHg 86%
    09:00 +29°C° 0 mm 1 mps 755 mmHg 76%
    10:00 +31°C° 0 mm 2 mps 755 mmHg 67%
    11:00 +34°C° 0 mm 2 mps 754 mmHg 59%
    12:00 +35°C° 0 mm 2 mps 754 mmHg 52%
    13:00 +37°C° 0 mm 2 mps 753 mmHg 45%
    14:00 +37°C° 0 mm 2 mps 752 mmHg 44%
    15:00 +37°C° 0 mm 2 mps 752 mmHg 44%
    16:00 +37°C° 0 mm 2 mps 751 mmHg 43%
    17:00 +35°C° 0 mm 2 mps 752 mmHg 51%
    18:00 +32°C° 0 mm 1 mps 752 mmHg 59%
    19:00 +30°C° 0 mm 1 mps 752 mmHg 67%
    20:00 +29°C° 0 mm 1 mps 753 mmHg 72%
    21:00 +28°C° 0 mm 1 mps 754 mmHg 77%
    22:00 +27°C° 0 mm 1 mps 754 mmHg 82%
    23:00 +27°C° 0 mm 1 mps 754 mmHg 84%

    Tomorrow, 25 January, Thursday

    Time Temperature Precipitation Wind Pressure Humidity
    00:00 +26°C° 0 mm 1 mps 754 mmHg 86%
    01:00 +26°C° 0 mm 1 mps 754 mmHg 88%
    02:00 +26°C° 0 mm 1 mps 754 mmHg 89%
    03:00 +25°C° 0 mm 1 mps 753 mmHg 90%
    04:00 +25°C° 0 mm 1 mps 753 mmHg 92%
    05:00 +25°C° 0 mm 1 mps 754 mmHg 91%
    06:00 +25°C° 0 mm 1 mps 754 mmHg 91%
    07:00 +25°C° 0 mm 1 mps 754 mmHg 91%
    08:00 +27°C° 0 mm 1 mps 754 mmHg 83%
    09:00 +29°C° 0 mm 1 mps 755 mmHg 75%
    10:00 +30°C° 0 mm 1 mps 755 mmHg 67%
    11:00 +32°C° 0 mm 1 mps 754 mmHg 60%
    12:00 +35°C° 0 mm 2 mps 754 mmHg 53%
    13:00 +36°C° 0 mm 2 mps 753 mmHg 46%
    14:00 +35°C° 0 mm 1 mps 752 mmHg 45%
    15:00 +35°C° 0 mm 1 mps 752 mmHg 45%
    16:00 +35°C° 0 mm 1 mps 751 mmHg 44%
    17:00 +33°C° 0 mm 1 mps 751 mmHg 53%
    18:00 +31°C° 0 mm 1 mps 752 mmHg 62%
    19:00 +29°C° 0 mm 1 mps 752 mmHg 71%
    20:00 +28°C° 0 mm 1 mps 753 mmHg 75%
    21:00 +28°C° 0 mm 1 mps 754 mmHg 80%
    22:00 +27°C° 0 mm 1 mps 755 mmHg 84%
    23:00 +27°C° 0 mm 1 mps 754 mmHg 86%

    Day after tomorrow, 26 January, Friday

    Time Temperature Precipitation Wind Pressure Humidity
    00:00 +26°C° 0 mm 1 mps 754 mmHg 88%
    01:00 +26°C° 0 mm 1 mps 754 mmHg 90%
    02:00 +24°C° 0 mm 0 mps 754 mmHg 91%
    03:00 +23°C° 0 mm 0 mps 753 mmHg 92%
    04:00 +23°C° 0 mm 0 mps 753 mmHg 93%
    05:00 +23°C° 0 mm 0 mps 753 mmHg 93%
    06:00 +23°C° 0 mm 0 mps 754 mmHg 92%
    07:00 +23°C° 0 mm 0 mps 754 mmHg 92%
    08:00 +27°C° 0 mm 1 mps 754 mmHg 83%
    09:00 +29°C° 0 mm 1 mps 755 mmHg 74%
    10:00 +32°C° 0 mm 1 mps 755 mmHg 65%
    11:00 +33°C° 0 mm 1 mps 755 mmHg 57%
    12:00 +35°C° 0 mm 1 mps 754 mmHg 49%
    13:00 +37°C° 0 mm 1 mps 753 mmHg 42%
    14:00 +36°C° 0 mm 1 mps 752 mmHg 41%
    15:00 +36°C° 0 mm 1 mps 752 mmHg 41%
    16:00 +36°C° 0 mm 1 mps 751 mmHg 41%
    17:00 +34°C° 0 mm 1 mps 751 mmHg 50%
    18:00 +32°C° 0 mm 1 mps 752 mmHg 59%
    19:00 +30°C° 0 mm 1 mps 753 mmHg 67%
    20:00 +29°C° 0.1 mm 1 mps 753 mmHg 73%
    21:00 +28°C° 0.1 mm 1 mps 754 mmHg 79%
    22:00 +27°C° 0.1 mm 1 mps 755 mmHg 85%
    23:00 +27°C° 0.1 mm 1 mps 755 mmHg 87%

    27 January, Saturday

    Time Temperature Precipitation Wind Pressure Humidity
    00:00 +27°C° 0.1 mm 1 mps 754 mmHg 89%
    01:00 +26°C° 0.1 mm 1 mps 754 mmHg 91%
    02:00 +26°C° 0 mm 1 mps 754 mmHg 92%
    03:00 +26°C° 0 mm 1 mps 753 mmHg 92%
    04:00 +26°C° 0 mm 1 mps 753 mmHg 93%
    05:00 +24°C° 0 mm 0 mps 753 mmHg 93%
    06:00 +24°C° 0 mm 0 mps 754 mmHg 93%
    07:00 +24°C° 0 mm 0 mps 754 mmHg 93%
    08:00 +28°C° 0 mm 1 mps 755 mmHg 84%
    09:00 +30°C° 0 mm 1 mps 755 mmHg 76%
    10:00 +32°C° 0 mm 1 mps 756 mmHg 67%
    11:00 +33°C° 0 mm 1 mps 755 mmHg 61%
    12:00 +34°C° 0 mm 1 mps 754 mmHg 54%
    13:00 +35°C° 0 mm 1 mps 753 mmHg 48%
    14:00 +35°C° 0 mm 1 mps 752 mmHg 47%
    15:00 +35°C° 0 mm 1 mps 752 mmHg 47%
    16:00 +35°C° 0 mm 1 mps 751 mmHg 46%
    17:00 +33°C° 0 mm 1 mps 751 mmHg 54%
    18:00 +31°C° 0 mm 1 mps 752 mmHg 62%
    19:00 +29°C° 0 mm 1 mps 753 mmHg 69%
    20:00 +29°C° 0 mm 1 mps 753 mmHg 73%
    21:00 +26°C° 0 mm 0 mps 754 mmHg 76%
    22:00 +26°C° 0 mm 0 mps 754 mmHg 79%
    23:00 +25°C° 0 mm 0 mps 754 mmHg 81%

    28 January, Sunday

    Time Temperature Precipitation Wind Pressure Humidity
    00:00 +25°C° 0 mm 0 mps 754 mmHg 82%
    01:00 +25°C° 0 mm 0 mps 754 mmHg 83%
    02:00 +24°C° 0 mm 0 mps 753 mmHg 84%
    03:00 +24°C° 0 mm 0 mps 753 mmHg 85%
    04:00 +24°C° 0 mm 0 mps 753 mmHg 86%
    05:00 +24°C° 0 mm 0 mps 753 mmHg 86%
    06:00 +24°C° 0 mm 0 mps 754 mmHg 86%
    07:00 +24°C° 0 mm 0 mps 754 mmHg 86%
    08:00 +26°C° 0 mm 0 mps 755 mmHg 78%
    09:00 +30°C° 0 mm 1 mps 755 mmHg 69%
    10:00 +33°C° 0 mm 1 mps 755 mmHg 61%
    11:00 +34°C° 0 mm 1 mps 755 mmHg 55%
    12:00 +36°C° 0 mm 1 mps 754 mmHg 49%
    13:00 +37°C° 0 mm 1 mps 753 mmHg 42%
    14:00 +37°C° 0 mm 1 mps 753 mmHg 44%
    15:00 +36°C° 0 mm 1 mps 752 mmHg 47%
    16:00 +35°C° 0 mm 1 mps 751 mmHg 49%
    17:00 +33°C° 0 mm 1 mps 752 mmHg 56%
    18:00 +32°C° 0 mm 1 mps 752 mmHg 63%
    19:00 +30°C° 0 mm 1 mps 753 mmHg 70%
    20:00 +29°C° 0 mm 1 mps 753 mmHg 73%
    21:00 +29°C° 0 mm 1 mps 754 mmHg 76%
    22:00 +28°C° 0 mm 1 mps 755 mmHg 80%
    23:00 +28°C° 0.1 mm 1 mps 755 mmHg 82%

    29 January, Monday

    Time Temperature Precipitation Wind Pressure Humidity
    00:00 +27°C° 0.1 mm 1 mps 754 mmHg 83%
    01:00 +27°C° 0.1 mm 1 mps 754 mmHg 85%
    02:00 +27°C° 0 mm 1 mps 754 mmHg 86%
    03:00 +26°C° 0 mm 1 mps 754 mmHg 87%
    04:00 +26°C° 0 mm 1 mps 754 mmHg 89%
    05:00 +26°C° 0 mm 1 mps 754 mmHg 89%
    06:00 +24°C° 0 mm 0 mps 755 mmHg 89%
    07:00 +24°C° 0 mm 0 mps 755 mmHg 88%
    08:00 +26°C° 0 mm 0 mps 755 mmHg 80%
    09:00 +30°C° 0 mm 1 mps 756 mmHg 71%
    10:00 +31°C° 0 mm 1 mps 756 mmHg 63%
    11:00 +33°C° 0 mm 1 mps 755 mmHg 56%
    12:00 +34°C° 0 mm 1 mps 755 mmHg 49%
    13:00 +36°C° 0 mm 1 mps 754 mmHg 43%
    14:00 +36°C° 0 mm 1 mps 754 mmHg 41%
    15:00 +36°C° 0 mm 1 mps 753 mmHg 40%
    16:00 +36°C° 0 mm 1 mps 752 mmHg 38%
    17:00 +34°C° 0 mm 1 mps 753 mmHg 45%
    18:00 +31°C° 0 mm 1 mps 753 mmHg 53%
    19:00 +27°C° 0 mm 0 mps 754 mmHg 60%
    20:00 +28°C° 0 mm 1 mps 754 mmHg 63%
    21:00 +28°C° 0 mm 1 mps 755 mmHg 65%
    22:00 +27°C° 0 mm 1 mps 756 mmHg 68%
    23:00 +27°C° 0 mm 1 mps 755 mmHg 71%
    Show more